Vorticity
3 0 2 6 7 4 3 6 5 8 14 17 16 11 14 15 10 8 7 6 5 3 4 5 6 9 6 3 3 3 8 11 11 9 6 7 7 6 9 9 8 9 6 5 7 7 8 8 7 7 7 7 8 8 7 6 5 5 4 5 5 5 6 5 5 5 5 5 5 6 6 7 7 6 6 6 6 5 6 7 7 8 9 6 3 2 3 6 5 4 5 5 8 10 9 10 11
1 0 1 2 5 5 4 7 8 13 17 13 13 11 9 10 8 5 3 4 2 2 5 4 5 5 4 4 4 5 6 7 9 10 7 6 7 6 7 7 8 8 5 6 8 8 8 7 7 7 7 8 7 7 7 6 5 4 4 6 5 6 6 5 6 5 6 6 5 6 5 7 7 7 7 7 8 8 8 7 8 9 7 3 2 2 3 6 6 5 6 7 10 11 10 9 11
2 2 -1 0 5 9 6 5 7 12 15 11 9 9 9 8 4 3 5 5 2 3 5 4 3 3 5 6 6 5 3 4 5 7 7 7 8 6 5 6 6 6 6 8 8 7 7 7 7 7 7 7 7 7 6 5 4 5 5 6 6 7 6 7 7 7 8 7 7 6 6 6 6 7 7 8 9 9 9 9 10 9 6 2 2 3 3 8 8 6 6 8 10 10 9 8 10
3 3 -1 2 5 9 9 6 7 7 10 13 10 7 7 5 2 4 6 6 4 4 6 4 2 3 4 5 6 4 4 5 6 7 7 7 8 7 6 5 5 5 7 8 8 7 7 7 7 7 7 7 7 6 5 5 5 6 6 6 7 8 8 9 8 8 7 7 8 7 7 7 7 7 6 8 7 9 11 10 9 7 5 1 1 2 4 11 9 5 8 9 10 10 9 9 8
3 2 -1 6 7 6 9 8 9 6 6 8 8 8 5 4 4 4 4 7 6 5 10 7 2 4 5 5 4 4 8 8 7 7 7 9 7 6 7 6 5 6 7 9 8 7 7 8 7 6 7 7 6 5 5 5 6 6 6 7 8 8 9 8 8 8 7 8 8 8 7 6 7 7 7 7 7 8 10 10 8 6 5 2 2 3 6 9 6 6 10 10 10 9 9 10 9
3 1 -2 8 11 6 7 6 8 11 14 8 3 6 6 3 2 4 5 7 6 5 9 7 5 6 6 6 4 5 8 8 10 9 9 10 7 6 8 7 6 6 8 9 8 8 8 8 7 6 6 6 5 5 5 5 6 6 7 8 8 9 8 9 9 8 9 10 10 10 9 8 8 7 6 6 7 8 8 8 7 5 4 2 2 5 7 6 6 9 11 10 10 8 9 10 9
2 2 -1 5 11 8 7 5 8 16 21 13 5 8 7 1 1 6 7 6 5 4 4 6 8 6 4 4 4 6 6 8 13 14 11 7 6 7 8 8 7 6 8 9 8 8 8 8 7 6 6 6 5 5 5 7 7 7 8 8 8 8 9 10 10 9 9 10 11 11 10 11 9 7 7 7 8 9 9 8 7 6 4 3 3 6 6 5 7 10 10 10 9 7 8 9 8
2 4 2 2 6 7 7 8 8 10 15 12 8 10 5 -1 3 7 6 5 3 2 4 6 8 7 6 4 5 6 6 10 13 15 14 7 7 8 8 9 7 7 9 8 8 8 8 7 6 6 6 5 5 6 7 8 7 8 9 8 7 7 9 9 9 10 10 11 12 12 11 12 10 10 10 8 7 8 9 8 7 6 4 4 4 6 4 5 8 9 9 8 7 8 8 8 9
2 3 3 2 3 6 8 9 9 7 10 8 4 7 4 1 5 7 6 6 3 1 4 6 6 6 5 4 5 6 7 10 11 13 12 9 9 8 8 9 8 9 9 8 7 7 7 6 6 6 6 5 6 8 8 8 9 9 8 7 6 7 9 9 10 10 11 12 11 12 11 12 12 11 10 8 7 7 8 7 7 8 6 5 5 5 4 6 8 9 9 7 7 8 7 8 8
2 2 4 5 4 6 7 6 9 10 11 6 4 8 6 4 4 8 9 6 4 3 4 5 4 4 5 4 3 5 7 10 11 10 9 10 10 7 8 9 9 10 9 8 7 6 7 6 6 6 6 7 7 9 9 9 9 8 7 6 5 7 7 8 10 10 12 13 11 11 11 11 9 8 9 10 8 8 6 7 8 8 6 6 7 5 4 7 8 8 7 7 8 7 7 7 7
3 3 4 7 4 5 8 6 5 9 14 10 10 14 9 6 2 5 9 6 5 4 5 6 5 4 3 3 3 4 6 8 10 8 10 12 10 7 8 8 9 10 9 8 7 7 6 6 7 6 7 8 9 9 8 8 8 7 6 5 5 7 7 7 9 10 11 12 11 10 10 11 10 10 13 12 9 8 7 7 6 6 5 7 8 4 5 8 8 7 4 5 7 7 7 6 6
3 3 4 6 4 4 7 10 7 7 16 14 12 12 7 6 3 5 9 8 6 5 6 6 6 4 3 3 2 4 5 8 9 5 12 14 9 8 8 8 9 10 9 7 7 7 6 7 7 7 8 8 9 8 6 6 6 6 6 5 5 6 7 8 9 9 10 12 12 10 11 11 11 11 12 12 10 8 8 7 5 5 6 8 7 4 6 8 8 7 4 5 6 5 6 6 6
3 3 6 7 3 3 4 9 10 7 11 13 11 8 5 6 5 8 10 8 4 4 6 4 6 5 4 5 3 5 5 9 8 4 14 14 8 9 8 8 9 10 10 8 7 7 7 7 8 9 9 9 8 7 5 5 5 5 5 5 5 5 6 7 7 8 9 11 12 13 13 11 10 10 10 12 11 9 8 7 7 7 7 7 6 5 7 8 7 6 4 5 7 7 6 6 6
3 4 7 7 3 3 5 4 7 8 11 13 13 10 8 8 5 7 11 10 5 4 5 4 7 6 6 7 5 7 6 9 8 5 15 14 8 10 8 9 10 10 9 8 8 7 7 8 9 9 9 8 6 6 5 4 5 5 5 5 5 4 4 6 6 6 7 8 10 13 14 11 10 10 10 10 11 10 9 8 8 8 8 5 4 5 6 7 6 6 4 5 7 7 7 7 6
4 4 5 8 4 3 6 4 3 8 13 13 12 11 7 5 4 6 10 9 7 6 5 4 6 4 7 9 6 7 7 8 7 6 15 13 8 10 8 10 9 9 9 8 8 7 8 9 9 8 8 7 5 4 3 4 5 5 5 5 6 6 5 7 7 5 4 6 9 12 14 14 12 10 11 9 8 9 9 8 8 9 9 6 4 4 5 6 5 5 5 4 5 5 5 6 5
4 3 5 9 7 4 5 5 6 8 13 10 9 11 7 4 2 6 10 7 7 6 3 4 5 3 6 11 7 7 8 8 6 8 15 11 8 9 8 9 8 9 9 8 8 8 9 8 8 8 7 6 3 3 3 4 4 5 6 5 6 6 7 9 9 7 6 5 6 7 9 13 14 12 13 11 9 9 8 7 8 8 9 7 5 5 4 5 6 5 4 3 4 3 4 4 3
4 4 5 8 8 5 4 5 6 10 13 8 7 8 8 12 6 3 8 8 9 6 3 5 4 3 6 8 8 8 8 9 6 9 15 10 7 8 7 9 8 8 8 8 9 9 8 6 7 7 7 6 4 3 3 4 4 5 6 6 6 6 6 9 9 9 8 8 9 9 10 12 12 11 12 11 12 12 9 9 9 8 9 8 7 7 5 4 6 6 4 3 4 3 3 3 3
3 4 4 7 7 4 5 6 6 11 14 7 9 10 9 15 9 2 6 6 8 7 2 2 2 4 4 3 6 10 10 9 6 9 16 10 7 9 8 8 8 8 8 8 9 9 7 5 6 7 6 5 3 3 4 4 4 6 6 6 7 7 5 6 6 8 8 9 12 13 13 13 11 10 10 9 11 13 11 11 11 9 10 9 7 7 6 5 6 7 6 4 3 3 4 4 5
4 4 4 6 8 4 4 6 5 10 14 5 4 8 8 12 12 9 9 4 5 5 2 2 3 4 3 1 4 9 10 10 7 10 17 11 7 9 8 8 8 8 8 7 8 7 6 5 6 7 6 4 3 4 5 6 5 6 6 5 7 7 5 5 6 8 9 8 10 10 10 12 12 12 11 10 9 11 12 12 11 11 10 9 8 7 7 6 5 7 7 6 5 5 6 7 8
3 5 5 5 7 5 3 5 6 7 10 6 5 9 8 9 12 13 10 5 3 5 5 5 5 5 4 2 3 8 9 9 7 8 15 12 7 8 8 8 8 8 7 6 6 5 5 4 5 6 5 4 3 4 6 7 6 6 6 6 6 8 7 7 7 7 7 7 7 9 9 10 10 11 11 11 10 10 12 13 12 11 10 9 9 7 6 5 5 7 7 8 8 8 7 8 8
4 5 5 5 6 6 3 3 6 6 2 1 6 11 6 4 10 9 4 6 6 5 5 5 7 8 6 4 2 5 9 8 7 9 13 11 7 7 7 8 8 8 6 5 5 5 5 4 4 5 5 4 3 5 6 7 6 6 7 7 7 7 7 9 10 7 6 7 7 8 9 9 9 9 9 10 10 10 10 11 11 10 9 9 7 6 6 5 7 7 7 8 8 7 7 7 8
4 4 4 4 4 5 5 2 3 6 3 3 8 8 3 4 10 6 1 5 6 6 7 5 6 7 7 9 4 2 8 8 8 10 10 10 7 6 7 7 7 7 6 5 5 4 4 4 4 4 4 4 5 6 6 6 6 7 8 8 6 5 6 9 10 7 5 6 7 7 8 9 9 8 8 8 9 9 9 10 10 9 8 7 7 6 6 6 7 7 7 8 8 9 9 10 11
3 5 4 3 4 4 6 3 0 2 4 8 11 6 2 6 8 4 6 9 7 6 8 7 7 7 7 12 8 2 6 7 8 11 10 10 7 5 8 8 7 7 6 5 4 4 4 3 4 4 5 5 6 6 6 5 6 8 9 7 5 5 7 8 7 8 7 6 6 6 7 8 9 9 8 8 8 8 8 9 9 9 8 7 7 6 6 7 7 7 8 8 10 12 13 13 11
4 4 3 3 4 4 4 5 5 3 3 6 10 8 4 5 6 6 8 9 7 7 7 7 10 10 7 10 9 3 5 6 8 10 9 10 8 5 8 8 7 7 5 4 3 4 3 3 4 4 4 5 6 7 6 6 8 9 9 6 4 6 9 8 6 9 9 7 5 5 6 6 8 9 9 9 9 8 9 9 9 8 8 7 6 6 6 6 7 8 9 10 11 11 12 11 9
3 2 3 5 6 6 5 5 7 8 9 7 4 4 3 3 6 8 7 6 7 8 7 7 9 11 8 8 8 4 5 6 8 10 8 10 10 6 6 7 7 7 5 4 3 3 3 3 4 4 4 6 8 8 7 7 8 8 8 5 1 3 9 9 6 7 8 6 4 5 5 5 6 8 9 9 10 10 10 10 10 9 8 8 7 7 8 8 9 10 10 11 11 11 11 11 10
1 2 5 7 6 6 6 6 7 7 9 9 3 1 3 5 7 7 6 6 8 8 8 7 7 11 11 8 7 6 7 7 8 11 9 8 9 6 4 6 8 8 6 5 3 3 3 3 4 5 5 7 8 8 7 7 7 7 7 4 1 3 7 7 5 6 7 6 5 6 5 4 6 7 7 8 8 9 10 11 11 11 10 9 9 10 10 10 10 10 10 10 10 11 12 11 11
4 5 6 7 6 5 6 7 9 6 6 10 8 7 5 3 5 7 7 7 7 8 8 7 6 11 13 8 6 9 9 8 9 12 10 7 8 7 3 5 7 7 8 6 4 3 4 5 5 6 6 7 9 8 7 7 6 6 7 5 5 8 8 4 4 7 9 8 7 7 6 5 6 7 7 7 7 7 7 8 10 11 10 9 9 9 9 9 8 8 9 9 10 11 11 11 9
8 8 7 7 6 6 5 6 7 4 6 8 7 9 6 2 4 7 7 5 5 7 7 7 6 9 14 10 8 10 9 8 10 12 12 7 6 7 4 4 5 6 8 7 7 6 6 7 6 6 6 7 8 8 7 6 6 6 7 6 7 10 8 3 4 8 8 8 8 7 6 6 7 7 7 7 7 7 6 6 8 9 9 10 9 8 7 7 6 7 7 8 8 9 11 11 9
9 9 9 8 7 5 5 7 5 2 7 11 9 10 7 3 5 6 6 4 4 5 5 7 6 8 13 12 10 11 8 6 9 11 14 10 6 7 5 3 4 4 7 7 6 7 7 8 7 7 7 8 8 8 7 6 7 7 7 7 9 9 5 2 6 8 7 6 7 7 6 7 8 7 7 7 7 7 7 7 7 8 8 10 10 8 7 7 6 6 8 8 8 9 11 11 9
9 10 11 10 7 4 4 7 5 2 6 10 8 7 7 4 5 7 6 4 5 4 4 6 6 7 11 14 13 12 8 7 8 9 13 13 6 6 6 4 3 2 4 5 4 4 5 6 7 8 8 8 7 7 6 6 6 8 8 8 7 7 5 4 7 7 6 7 6 5 6 7 9 8 7 7 7 7 8 9 9 8 8 9 9 9 9 7 6 7 8 9 9 10 11 10 8
7 9 11 12 8 4 5 6 5 5 6 6 6 7 7 6 6 7 7 5 6 5 3 5 6 7 10 13 13 12 9 6 7 8 12 15 7 4 6 5 3 2 3 4 3 3 2 4 6 8 9 8 7 7 6 6 7 8 9 7 4 5 7 6 6 7 7 8 7 5 6 7 8 9 9 8 8 7 7 9 10 9 9 8 8 8 8 6 5 6 8 9 10 11 11 9 8
4 7 9 12 11 5 4 6 6 6 6 5 7 8 6 6 5 4 6 6 8 6 2 3 6 7 9 9 12 14 10 6 8 8 10 15 11 4 5 6 3 1 2 3 3 2 2 3 5 7 9 9 7 7 6 6 6 8 8 7 5 7 10 7 5 6 6 7 6 5 6 7 8 9 9 9 8 7 6 9 10 9 9 8 8 8 7 6 5 5 8 10 10 10 9 8 8
2 4 6 11 12 6 3 5 6 5 7 7 7 8 5 5 5 5 7 4 7 7 2 2 4 7 10 7 9 13 11 6 6 8 8 13 15 7 3 6 5 3 3 4 3 4 3 4 5 6 8 10 8 7 7 7 6 7 8 7 8 8 8 5 5 7 6 7 6 5 7 7 7 8 10 10 9 7 7 8 9 9 8 8 9 9 8 7 5 5 8 10 10 9 8 8 8
2 1 5 9 10 8 3 3 6 5 7 9 7 7 5 5 6 8 9 4 5 6 3 4 3 6 10 7 7 11 12 8 4 6 7 9 16 13 5 4 6 4 4 5 5 4 4 5 5 5 6 9 10 8 7 7 6 7 7 8 8 7 6 5 8 9 7 8 7 6 8 7 6 7 9 10 9 7 6 8 9 9 8 9 9 10 10 9 6 6 7 10 10 9 8 7 7
3 1 3 6 8 9 5 2 6 5 6 8 5 5 5 4 4 7 10 8 5 4 4 6 4 3 8 8 7 8 12 12 7 7 7 7 13 17 10 4 4 5 4 5 6 4 4 4 5 5 6 7 10 9 8 7 6 6 7 8 8 6 6 7 7 7 6 6 6 6 7 7 6 6 8 9 8 7 7 8 8 9 9 9 10 11 11 10 7 5 6 9 10 9 8 7 7
5 2 1 5 5 7 7 5 6 6 5 7 6 5 5 3 2 4 8 8 3 2 3 6 5 3 5 7 8 7 9 12 13 10 9 7 8 15 16 8 2 3 4 4 5 5 4 4 4 5 5 6 8 9 7 6 6 6 7 7 8 7 7 8 6 5 5 4 5 6 7 8 7 6 7 8 8 8 7 8 8 9 9 10 10 11 11 11 8 5 5 7 9 9 8 7 7
8 5 1 3 4 4 6 6 7 7 6 8 9 7 6 4 2 2 6 8 3 2 4 3 6 5 3 5 6 7 7 9 15 17 11 7 6 11 18 16 7 3 3 3 4 4 4 4 4 4 5 5 8 8 6 7 8 7 7 7 7 7 7 8 6 4 5 5 6 8 7 7 7 7 8 8 9 8 7 8 8 8 9 10 11 11 12 12 9 6 4 5 7 9 9 8 8
10 8 3 2 3 4 5 5 5 6 5 7 8 7 6 4 3 3 6 9 3 2 3 1 6 8 4 4 5 8 10 7 12 18 15 9 7 9 13 16 13 7 3 3 4 5 4 4 4 4 5 6 8 9 7 7 10 9 8 8 7 6 7 7 7 5 4 5 6 7 6 5 5 8 10 9 8 7 7 8 8 8 8 8 9 10 12 13 11 9 5 4 6 8 9 8 7
10 10 7 3 2 3 4 4 3 4 3 4 4 6 7 5 6 5 5 9 5 3 2 -2 6 10 4 4 5 7 9 6 7 13 16 10 6 6 7 11 14 11 7 3 4 5 4 4 5 4 5 7 7 9 9 7 9 10 10 9 7 6 6 6 8 7 3 3 6 7 6 5 6 8 11 11 9 7 7 8 8 8 8 7 7 7 9 11 12 10 7 5 4 6 8 8 7
10 12 11 7 3 1 2 3 3 4 4 3 3 4 7 6 7 7 8 10 6 5 1 -3 4 9 6 5 4 4 5 4 5 9 14 13 8 6 5 6 11 12 12 9 5 5 5 5 5 5 5 5 6 8 10 9 8 10 10 9 7 7 7 7 9 8 3 3 6 7 7 6 7 9 10 10 9 7 7 7 8 8 8 8 7 7 7 8 10 10 9 7 5 4 5 6 7
10 12 14 13 7 1 1 2 2 5 7 5 3 5 7 7 7 8 9 10 11 10 3 -0 4 5 8 8 2 4 6 6 7 8 13 14 8 6 6 5 7 8 12 13 9 5 6 8 7 6 4 3 6 8 8 8 7 7 8 7 6 7 7 7 8 6 3 5 7 6 6 7 7 9 9 8 8 7 7 7 8 8 7 8 7 8 7 7 8 9 10 9 8 7 5 5 5
9 10 14 17 14 7 3 1 1 4 6 5 4 6 7 5 7 6 5 11 17 13 4 3 5 3 8 9 2 4 6 7 9 7 13 20 13 7 6 6 6 5 8 12 11 6 5 7 7 6 5 3 5 7 6 7 6 6 8 8 7 7 7 8 8 6 5 6 7 6 6 7 8 9 8 8 9 8 7 7 6 6 7 8 8 8 8 7 7 8 9 9 9 9 8 7 7
8 9 11 14 15 13 9 4 2 3 4 4 3 6 6 4 7 6 4 12 15 9 4 6 7 3 5 7 5 5 4 5 7 3 8 22 23 16 10 6 5 5 6 9 12 10 7 6 7 7 6 3 4 6 7 7 7 7 9 10 11 11 10 8 7 6 6 6 6 6 7 8 8 8 8 8 9 9 8 6 5 6 7 7 7 7 7 8 8 8 8 8 8 8 8 9 9
9 9 10 10 11 13 12 8 5 3 3 3 1 4 8 6 6 6 6 10 10 5 5 5 4 4 4 6 5 4 4 5 5 3 4 11 18 17 12 8 5 4 5 8 10 11 9 7 7 8 6 3 3 7 8 7 8 7 7 9 11 11 11 9 8 7 6 6 6 5 6 7 7 7 8 8 8 8 8 7 6 6 7 7 6 6 7 7 8 8 8 8 8 7 8 8 8
12 9 7 8 8 9 10 9 8 7 5 4 1 1 7 9 7 6 5 7 9 10 11 10 8 4 5 10 9 3 5 6 5 5 4 5 9 12 13 11 9 7 6 6 8 9 9 7 7 8 7 4 3 6 8 8 8 8 6 7 9 10 11 11 10 8 7 6 6 5 5 6 6 7 8 7 7 7 8 8 8 7 7 6 6 6 6 6 6 7 8 8 8 7 7 7 7
11 9 7 8 9 8 8 7 8 9 6 6 3 -1 4 9 8 9 7 7 14 16 14 13 10 4 5 11 10 6 7 6 4 5 3 3 8 10 14 17 14 11 7 5 7 8 8 8 7 8 8 5 3 4 7 9 8 8 8 8 8 9 10 10 10 9 8 7 6 6 5 5 6 7 8 6 6 7 7 8 8 8 7 6 6 6 5 5 6 6 7 7 7 7 7 6 6
7 11 10 8 10 10 9 7 6 7 7 8 5 1 2 4 4 8 9 7 12 14 11 11 12 10 8 6 3 6 14 11 3 3 3 3 9 12 15 20 18 14 10 6 7 9 10 9 8 7 7 6 4 3 5 7 7 8 9 9 8 9 9 9 9 7 6 6 6 6 6 6 6 7 7 6 5 6 7 7 8 7 7 6 6 6 6 6 5 5 6 6 6 7 7 6 5
6 10 11 9 9 9 9 10 6 4 7 8 4 2 2 2 3 6 7 5 3 2 4 9 13 14 8 -0 -1 3 14 19 7 1 5 3 5 8 9 15 17 16 16 12 8 8 9 10 9 8 8 7 5 3 4 5 6 7 8 9 8 9 10 10 9 8 7 7 6 6 7 7 6 6 6 6 5 6 6 7 8 8 8 8 7 7 6 6 6 5 6 6 7 7 6 6 5
8 7 9 10 8 7 8 10 6 4 10 11 4 3 3 4 6 4 4 7 3 -1 -1 -1 1 7 5 -3 -3 -2 7 23 16 1 4 5 4 5 4 8 12 13 14 14 10 7 7 8 8 8 8 7 6 5 4 4 5 6 7 8 9 10 10 10 10 10 8 8 7 8 8 8 7 7 7 7 6 6 6 7 9 9 8 7 7 7 7 7 7 7 6 6 6 6 7 6 5
9 8 8 9 9 7 7 8 7 6 11 10 4 4 3 5 9 5 2 5 4 2 1 -1 -5 -2 2 -3 -3 -3 -1 17 21 6 2 5 5 6 4 5 8 9 11 14 15 10 6 6 6 7 8 7 7 6 4 4 4 5 5 7 8 9 10 9 10 9 8 9 9 9 9 8 9 9 8 9 8 7 6 6 8 9 8 8 7 7 8 8 8 8 7 6 5 6 6 7 6
9 9 8 8 9 9 7 8 10 7 9 9 5 4 2 3 7 7 6 3 -0 1 3 6 3 -1 -1 -3 -2 -0 -3 7 15 9 5 5 4 4 4 5 7 8 10 13 17 17 13 9 6 6 7 7 7 7 6 4 3 4 5 6 7 9 10 8 8 8 8 8 9 9 9 9 9 10 10 10 9 8 9 8 7 8 8 8 8 8 8 7 7 8 7 6 6 5 6 6 6
9 8 10 8 7 10 10 10 10 9 9 9 6 2 -1 1 4 5 10 6 0 6 10 10 10 7 5 2 2 3 1 4 5 3 8 8 3 3 3 4 7 6 7 10 13 18 18 15 9 6 6 6 7 7 6 5 4 4 4 5 6 8 9 8 7 8 7 7 7 7 8 9 9 9 9 9 9 9 10 9 9 8 8 8 8 9 9 7 6 6 7 8 7 6 6 5 5
10 10 11 8 7 9 10 10 10 10 10 7 5 3 -1 1 3 2 8 8 3 7 11 8 7 7 8 9 8 4 1 6 3 2 12 10 4 7 5 4 7 5 5 8 9 11 16 17 13 9 7 7 7 7 7 6 6 4 3 4 5 6 7 8 8 7 7 6 6 7 7 8 8 8 7 6 7 7 8 8 9 8 9 9 9 9 10 8 6 6 8 9 8 8 7 5 4
13 13 10 9 10 9 9 9 8 10 11 7 4 4 1 1 2 1 3 5 5 5 4 2 1 1 4 9 14 10 4 6 2 1 11 9 2 5 5 4 7 6 4 6 6 8 11 15 16 14 12 9 7 7 7 8 8 6 4 3 4 5 6 7 8 7 6 6 6 6 6 5 6 7 7 6 6 6 6 6 7 8 8 9 9 9 10 9 9 8 9 9 9 9 8 6 4
14 12 10 12 12 9 9 9 7 8 11 8 5 5 4 0 -0 1 2 2 4 5 3 1 -1 -0 1 3 12 17 11 8 4 2 9 9 2 3 4 4 6 7 6 4 4 7 9 11 14 15 15 11 7 6 6 8 9 8 5 3 3 4 5 5 6 6 6 6 5 5 5 6 7 6 7 7 8 8 7 7 7 7 8 8 8 9 9 9 10 9 9 9 8 9 9 8 5
15 14 13 13 12 11 9 8 7 7 9 10 8 6 5 3 2 1 1 2 2 3 5 3 1 2 3 -1 1 12 17 15 9 4 5 9 10 8 5 4 5 6 7 5 3 6 8 9 10 11 14 16 12 10 8 7 8 9 8 5 2 3 4 4 5 5 6 7 6 5 5 6 6 6 6 8 8 8 8 8 8 8 8 8 8 9 9 9 10 10 10 9 8 8 9 9 6
15 16 15 13 11 11 10 9 8 5 5 9 10 7 5 6 6 3 1 3 2 2 4 4 3 3 5 3 -3 4 18 18 9 5 -1 0 8 12 9 8 7 5 5 5 3 4 6 8 8 9 12 16 16 15 12 9 8 9 10 8 5 3 2 3 4 5 5 6 6 5 5 6 6 6 6 7 8 8 8 7 7 8 8 9 9 9 10 9 9 10 10 9 8 8 8 7 6
14 15 16 15 13 12 11 10 10 7 5 7 9 8 6 7 8 6 4 4 3 4 3 2 4 3 5 8 1 4 19 16 8 9 4 -6 -3 5 7 8 10 7 4 6 5 3 5 6 8 9 9 11 14 15 14 11 8 8 9 10 8 4 3 3 4 5 4 4 5 5 6 6 5 5 6 6 6 8 8 8 7 7 8 9 10 10 10 11 10 10 10 10 9 9 8 7 7
Height
5883 5883 5883 5883 5883 5884 5883 5883 5882 5882 5882 5881 5881 5881 5881 5881 5881 5882 5882 5883 5884 5884 5885 5884 5884 5884 5885 5885 5884 5884 5885 5885 5885 5886 5886 5887 5887 5888 5888 5889 5889 5890 5890 5891 5892 5892 5893 5893 5893 5893 5893 5892 5892 5892 5893 5893 5893 5893 5894 5894 5894 5894 5894 5894 5894 5895 5895 5896 5896 5896 5897 5897 5897 5897 5898 5898 5899 5899 5900 5901 5901 5901 5902 5902 5903 5903 5903 5904 5906 5906 5905 5905 5905 5903 5902 5901 5902
5884 5884 5883 5884 5884 5885 5884 5884 5883 5883 5882 5882 5882 5882 5883 5883 5882 5882 5883 5883 5884 5885 5885 5885 5885 5885 5886 5886 5885 5885 5886 5886 5886 5886 5887 5887 5887 5888 5889 5889 5890 5890 5891 5892 5892 5893 5894 5894 5894 5894 5893 5893 5893 5893 5894 5894 5894 5894 5894 5894 5894 5894 5894 5895 5895 5895 5896 5896 5897 5897 5897 5897 5897 5898 5898 5899 5899 5900 5900 5901 5901 5902 5902 5903 5904 5904 5903 5903 5907 5907 5906 5906 5905 5904 5904 5902 5902
5884 5884 5884 5885 5885 5885 5885 5885 5884 5884 5883 5883 5883 5883 5884 5884 5884 5884 5884 5884 5884 5885 5886 5886 5886 5887 5887 5887 5886 5886 5887 5887 5887 5887 5888 5888 5888 5889 5889 5890 5890 5891 5892 5893 5893 5894 5894 5895 5895 5895 5894 5894 5894 5895 5895 5895 5896 5896 5896 5895 5895 5895 5895 5896 5896 5896 5896 5897 5897 5897 5897 5897 5898 5899 5899 5899 5900 5900 5900 5901 5901 5901 5902 5904 5905 5905 5902 5904 5908 5908 5906 5906 5905 5905 5905 5904 5903
5885 5885 5886 5886 5887 5887 5886 5885 5885 5885 5885 5885 5884 5885 5885 5886 5886 5886 5887 5886 5886 5886 5887 5887 5887 5888 5888 5888 5887 5887 5887 5888 5888 5888 5889 5889 5889 5889 5889 5890 5891 5891 5892 5893 5894 5894 5895 5895 5895 5895 5895 5896 5896 5896 5897 5897 5897 5897 5897 5897 5897 5897 5897 5897 5897 5897 5897 5897 5897 5897 5897 5898 5899 5899 5900 5900 5900 5900 5900 5900 5899 5900 5901 5904 5906 5905 5903 5905 5909 5909 5907 5906 5906 5906 5905 5905 5905
5886 5887 5887 5888 5888 5887 5887 5886 5886 5886 5886 5886 5886 5886 5886 5887 5887 5888 5888 5888 5888 5888 5888 5888 5888 5888 5889 5889 5888 5888 5888 5888 5889 5889 5889 5890 5890 5890 5890 5890 5891 5892 5893 5894 5895 5896 5896 5896 5896 5896 5896 5897 5897 5898 5898 5898 5898 5898 5898 5898 5898 5898 5898 5898 5897 5897 5897 5897 5897 5897 5898 5898 5899 5900 5900 5901 5901 5901 5900 5899 5899 5899 5901 5905 5906 5906 5903 5904 5908 5909 5908 5907 5907 5906 5907 5907 5907
5887 5888 5888 5889 5889 5888 5887 5886 5886 5886 5886 5887 5887 5887 5887 5887 5888 5889 5889 5889 5890 5889 5888 5889 5890 5890 5889 5889 5889 5889 5889 5889 5890 5889 5890 5890 5890 5891 5891 5891 5891 5892 5894 5895 5896 5897 5897 5898 5898 5898 5898 5898 5898 5899 5899 5899 5899 5899 5899 5900 5900 5900 5899 5899 5898 5898 5897 5897 5897 5898 5898 5899 5900 5900 5900 5900 5900 5900 5900 5901 5901 5900 5901 5904 5907 5906 5904 5904 5907 5910 5910 5909 5908 5907 5907 5908 5908
5889 5889 5889 5890 5890 5888 5887 5887 5887 5886 5887 5887 5888 5888 5888 5888 5889 5889 5889 5890 5891 5890 5889 5890 5891 5891 5890 5890 5889 5889 5889 5890 5890 5890 5890 5891 5891 5891 5892 5892 5892 5893 5895 5896 5897 5898 5898 5899 5899 5899 5899 5900 5900 5900 5900 5900 5900 5900 5901 5901 5901 5901 5900 5899 5899 5898 5898 5898 5898 5898 5899 5899 5900 5900 5900 5899 5898 5899 5900 5902 5903 5901 5901 5903 5905 5906 5906 5905 5907 5909 5910 5909 5908 5907 5908 5908 5908
5889 5890 5891 5891 5890 5889 5888 5888 5888 5888 5888 5889 5889 5889 5889 5890 5890 5890 5890 5890 5891 5891 5891 5891 5891 5892 5891 5891 5890 5890 5890 5890 5891 5891 5891 5892 5892 5892 5892 5892 5892 5894 5895 5896 5897 5898 5899 5900 5900 5900 5900 5901 5901 5901 5901 5902 5902 5902 5902 5902 5902 5901 5901 5900 5900 5899 5899 5899 5900 5899 5900 5899 5899 5899 5899 5899 5899 5900 5902 5904 5904 5902 5902 5903 5905 5906 5907 5907 5907 5908 5908 5908 5908 5909 5910 5910 5910
5890 5891 5891 5891 5891 5890 5889 5889 5889 5889 5890 5890 5890 5890 5891 5891 5891 5891 5890 5890 5891 5892 5892 5892 5891 5892 5892 5891 5891 5891 5891 5891 5892 5891 5892 5893 5893 5892 5893 5893 5893 5894 5896 5897 5897 5899 5899 5900 5901 5901 5902 5902 5902 5902 5903 5903 5903 5903 5903 5903 5902 5902 5902 5901 5901 5901 5901 5901 5901 5900 5900 5900 5899 5898 5899 5901 5902 5903 5904 5906 5907 5906 5904 5903 5904 5906 5908 5908 5908 5909 5909 5909 5909 5910 5911 5912 5912
5891 5891 5891 5892 5891 5891 5890 5890 5890 5890 5890 5890 5891 5891 5891 5892 5891 5891 5891 5891 5892 5892 5893 5892 5891 5892 5893 5892 5892 5892 5892 5892 5892 5892 5893 5894 5894 5893 5893 5894 5895 5896 5896 5897 5898 5899 5900 5901 5901 5902 5902 5903 5903 5903 5904 5904 5905 5905 5904 5904 5903 5903 5903 5903 5903 5902 5902 5902 5902 5901 5901 5900 5900 5900 5903 5905 5904 5904 5905 5906 5908 5909 5908 5906 5905 5906 5908 5909 5910 5911 5911 5911 5911 5912 5913 5914 5914
5891 5892 5892 5892 5892 5892 5891 5891 5890 5890 5891 5891 5891 5892 5892 5892 5892 5892 5892 5893 5893 5893 5893 5892 5892 5892 5894 5893 5892 5892 5892 5893 5893 5893 5894 5895 5894 5894 5894 5895 5896 5897 5898 5898 5899 5900 5901 5901 5902 5903 5903 5903 5904 5904 5905 5905 5906 5905 5905 5905 5904 5904 5904 5904 5904 5904 5903 5903 5902 5902 5901 5901 5902 5903 5904 5905 5905 5905 5906 5907 5908 5910 5911 5910 5907 5907 5909 5910 5911 5912 5913 5913 5913 5914 5915 5915 5915
5891 5892 5892 5892 5892 5892 5892 5891 5891 5891 5891 5891 5892 5892 5892 5892 5893 5893 5894 5893 5893 5893 5894 5893 5893 5894 5894 5894 5893 5893 5893 5893 5894 5894 5895 5895 5895 5895 5895 5896 5896 5898 5899 5900 5900 5901 5901 5902 5902 5903 5904 5904 5905 5905 5906 5906 5906 5906 5906 5906 5906 5906 5905 5905 5905 5905 5904 5903 5903 5903 5903 5903 5903 5903 5904 5905 5905 5906 5907 5907 5908 5910 5911 5911 5911 5909 5910 5912 5913 5914 5914 5914 5914 5915 5916 5916 5916
5891 5892 5892 5892 5892 5893 5893 5892 5891 5891 5892 5892 5892 5892 5892 5893 5893 5894 5894 5893 5893 5893 5894 5894 5895 5895 5895 5895 5895 5894 5893 5894 5894 5895 5896 5896 5896 5896 5896 5897 5897 5899 5900 5901 5902 5902 5902 5903 5903 5904 5904 5905 5906 5906 5907 5907 5907 5907 5907 5907 5907 5907 5907 5907 5906 5905 5905 5904 5904 5904 5904 5904 5903 5904 5904 5905 5906 5906 5907 5907 5909 5910 5910 5912 5913 5912 5911 5913 5914 5915 5915 5915 5915 5917 5917 5917 5917
5891 5891 5892 5892 5892 5893 5893 5892 5892 5892 5892 5892 5893 5893 5893 5893 5893 5894 5894 5893 5893 5894 5894 5895 5896 5895 5896 5897 5896 5895 5894 5894 5895 5896 5897 5897 5897 5897 5897 5898 5899 5900 5901 5902 5903 5903 5903 5904 5904 5905 5905 5906 5907 5907 5908 5908 5908 5908 5908 5908 5908 5908 5908 5907 5907 5906 5906 5905 5905 5905 5905 5904 5904 5905 5906 5906 5906 5907 5907 5907 5909 5910 5911 5912 5914 5913 5913 5914 5915 5916 5916 5915 5916 5917 5918 5918 5918
5890 5891 5891 5892 5892 5893 5894 5894 5893 5893 5893 5893 5893 5894 5893 5893 5894 5894 5894 5893 5894 5895 5895 5896 5896 5896 5897 5898 5897 5896 5895 5895 5895 5897 5898 5898 5898 5899 5899 5899 5900 5901 5902 5903 5904 5904 5904 5905 5905 5906 5907 5907 5908 5908 5908 5909 5909 5909 5909 5909 5908 5908 5909 5908 5908 5908 5907 5906 5906 5906 5906 5906 5906 5907 5907 5907 5907 5907 5907 5908 5909 5910 5911 5912 5914 5914 5914 5915 5916 5917 5917 5917 5917 5917 5918 5918 5919
5890 5890 5891 5891 5892 5893 5894 5894 5894 5894 5894 5893 5894 5894 5894 5894 5894 5894 5895 5895 5895 5896 5896 5896 5896 5896 5897 5898 5898 5897 5896 5895 5896 5898 5899 5899 5899 5900 5900 5900 5901 5902 5903 5904 5905 5905 5906 5906 5907 5907 5908 5908 5909 5909 5909 5910 5910 5910 5910 5910 5910 5909 5910 5909 5909 5909 5908 5908 5908 5907 5907 5907 5907 5908 5908 5907 5908 5909 5909 5910 5910 5910 5911 5913 5914 5915 5915 5916 5917 5918 5919 5919 5918 5918 5918 5918 5919
5889 5890 5890 5891 5891 5892 5893 5894 5895 5895 5894 5894 5894 5894 5894 5894 5895 5895 5896 5896 5897 5896 5896 5896 5896 5897 5898 5898 5898 5898 5897 5896 5897 5898 5899 5900 5900 5900 5901 5901 5902 5903 5904 5905 5906 5906 5907 5908 5908 5909 5909 5910 5910 5910 5910 5911 5911 5911 5911 5911 5911 5911 5911 5911 5911 5910 5910 5909 5909 5909 5908 5908 5908 5908 5908 5908 5909 5910 5910 5911 5911 5911 5912 5913 5915 5916 5916 5917 5918 5919 5919 5920 5920 5920 5920 5920 5920
5889 5889 5890 5890 5891 5892 5893 5894 5895 5895 5894 5894 5894 5894 5894 5895 5895 5896 5896 5897 5897 5896 5896 5896 5896 5897 5898 5898 5898 5899 5898 5897 5898 5899 5900 5901 5901 5901 5901 5902 5903 5904 5905 5906 5907 5908 5908 5909 5910 5910 5910 5911 5911 5911 5911 5911 5912 5912 5912 5912 5912 5912 5912 5912 5912 5912 5911 5910 5909 5909 5909 5909 5909 5910 5910 5910 5911 5911 5911 5912 5912 5913 5913 5914 5915 5916 5917 5918 5919 5920 5920 5920 5921 5921 5921 5921 5922
5888 5889 5889 5891 5891 5892 5893 5894 5895 5895 5895 5895 5895 5895 5895 5895 5896 5896 5896 5896 5896 5896 5896 5896 5896 5897 5898 5898 5898 5900 5899 5898 5898 5900 5901 5902 5902 5902 5902 5903 5904 5905 5905 5906 5908 5909 5909 5910 5911 5911 5912 5912 5912 5912 5912 5912 5913 5913 5913 5913 5913 5913 5913 5913 5913 5912 5912 5911 5910 5910 5910 5910 5910 5911 5912 5912 5912 5912 5912 5912 5913 5914 5914 5915 5916 5917 5918 5919 5920 5921 5921 5921 5922 5922 5922 5923 5923
5887 5888 5889 5891 5892 5892 5893 5894 5895 5895 5896 5895 5895 5895 5896 5896 5896 5896 5896 5896 5896 5896 5897 5897 5898 5898 5898 5899 5899 5900 5900 5899 5899 5900 5902 5903 5903 5903 5904 5904 5905 5906 5906 5907 5908 5909 5910 5911 5912 5913 5913 5913 5913 5913 5913 5913 5914 5913 5913 5914 5914 5914 5914 5914 5913 5913 5913 5912 5912 5912 5912 5912 5912 5913 5913 5913 5914 5914 5914 5914 5914 5915 5916 5916 5917 5918 5919 5920 5921 5922 5922 5923 5923 5923 5923 5924 5924
5886 5887 5889 5891 5892 5892 5893 5894 5895 5896 5896 5896 5895 5895 5896 5896 5896 5896 5897 5897 5897 5897 5897 5897 5898 5899 5899 5899 5900 5901 5901 5899 5900 5901 5903 5904 5904 5905 5905 5906 5906 5907 5908 5908 5909 5910 5911 5912 5913 5914 5914 5914 5914 5914 5914 5914 5915 5915 5914 5914 5915 5915 5915 5915 5915 5915 5914 5914 5914 5914 5914 5914 5914 5914 5914 5914 5915 5915 5915 5915 5916 5916 5917 5918 5919 5919 5920 5921 5922 5923 5923 5924 5924 5925 5925 5925 5925
5885 5886 5888 5890 5891 5892 5893 5894 5895 5896 5896 5895 5895 5895 5896 5896 5897 5897 5898 5898 5898 5898 5898 5898 5899 5900 5900 5900 5900 5901 5901 5900 5900 5902 5903 5904 5905 5906 5906 5907 5908 5908 5909 5909 5910 5911 5912 5913 5914 5915 5915 5915 5915 5915 5915 5915 5916 5916 5915 5915 5916 5916 5916 5916 5916 5916 5916 5916 5916 5916 5916 5916 5916 5916 5916 5916 5916 5917 5917 5917 5918 5918 5919 5919 5920 5921 5922 5922 5923 5924 5924 5925 5925 5926 5926 5926 5926
5884 5885 5888 5889 5890 5891 5892 5893 5894 5895 5896 5895 5895 5895 5895 5896 5897 5897 5898 5898 5898 5898 5898 5898 5899 5900 5900 5901 5901 5902 5902 5901 5901 5902 5904 5905 5906 5906 5907 5907 5908 5909 5910 5910 5911 5912 5913 5914 5915 5916 5916 5916 5916 5916 5916 5916 5917 5917 5917 5916 5917 5917 5917 5917 5918 5918 5918 5918 5918 5918 5918 5918 5918 5918 5918 5918 5918 5918 5919 5919 5919 5920 5920 5920 5921 5922 5923 5924 5924 5925 5925 5926 5926 5927 5927 5927 5927
5883 5885 5886 5888 5889 5891 5892 5893 5894 5895 5896 5896 5895 5895 5895 5896 5896 5897 5898 5898 5898 5898 5899 5899 5900 5901 5901 5901 5902 5903 5902 5902 5902 5903 5904 5906 5907 5908 5908 5908 5909 5910 5911 5911 5912 5913 5914 5915 5916 5916 5917 5917 5917 5917 5917 5917 5918 5918 5918 5917 5918 5918 5918 5919 5919 5919 5919 5919 5919 5919 5919 5919 5919 5919 5919 5920 5920 5920 5920 5921 5921 5921 5921 5922 5922 5923 5924 5925 5925 5926 5926 5927 5927 5927 5928 5928 5928
5882 5884 5885 5887 5889 5890 5892 5893 5895 5896 5897 5897 5896 5895 5895 5895 5896 5897 5898 5898 5898 5899 5899 5899 5900 5901 5901 5902 5903 5903 5903 5902 5903 5904 5905 5907 5908 5909 5909 5909 5910 5911 5912 5912 5913 5914 5914 5915 5916 5917 5917 5918 5918 5918 5918 5918 5919 5919 5918 5918 5919 5919 5920 5920 5920 5920 5920 5921 5921 5921 5921 5921 5921 5921 5921 5921 5922 5922 5922 5922 5923 5923 5923 5923 5924 5924 5925 5926 5927 5927 5927 5928 5928 5928 5929 5929 5930
5881 5883 5885 5887 5888 5890 5891 5893 5894 5896 5897 5897 5897 5896 5896 5896 5896 5897 5898 5898 5899 5899 5899 5900 5901 5901 5902 5903 5904 5904 5903 5903 5904 5905 5906 5907 5908 5909 5910 5911 5911 5912 5913 5913 5914 5914 5915 5916 5917 5918 5918 5918 5919 5919 5919 5919 5920 5920 5919 5919 5920 5920 5921 5921 5921 5921 5922 5922 5922 5923 5923 5923 5923 5922 5923 5923 5924 5924 5924 5924 5924 5925 5925 5925 5926 5926 5927 5927 5928 5928 5929 5929 5929 5930 5930 5930 5931
5880 5883 5885 5886 5888 5889 5891 5892 5894 5895 5896 5897 5897 5897 5896 5896 5897 5897 5898 5898 5899 5900 5900 5900 5901 5902 5903 5903 5904 5904 5904 5904 5905 5905 5906 5907 5908 5910 5911 5911 5912 5913 5914 5914 5914 5915 5916 5917 5918 5918 5919 5919 5919 5920 5920 5920 5920 5921 5920 5920 5921 5921 5922 5922 5923 5923 5923 5923 5924 5924 5924 5925 5925 5924 5924 5925 5925 5925 5926 5926 5926 5926 5927 5927 5927 5928 5929 5929 5929 5930 5930 5930 5930 5931 5931 5932 5932
5880 5882 5883 5885 5887 5888 5890 5891 5893 5894 5895 5896 5897 5897 5897 5897 5897 5898 5898 5899 5899 5900 5900 5901 5901 5902 5903 5904 5904 5904 5905 5905 5905 5906 5907 5907 5908 5909 5911 5912 5913 5914 5914 5915 5915 5916 5916 5917 5918 5919 5919 5920 5920 5920 5921 5921 5921 5921 5922 5922 5922 5922 5923 5923 5924 5924 5924 5925 5925 5926 5926 5926 5926 5926 5926 5926 5927 5927 5927 5927 5927 5928 5928 5929 5929 5929 5930 5930 5931 5931 5931 5931 5932 5932 5933 5934 5934
5879 5881 5882 5884 5886 5887 5888 5890 5891 5893 5894 5895 5896 5897 5896 5896 5897 5897 5898 5899 5900 5900 5900 5901 5901 5902 5903 5904 5904 5905 5905 5906 5906 5907 5907 5908 5909 5910 5911 5912 5913 5914 5914 5915 5916 5916 5917 5918 5919 5919 5920 5920 5921 5921 5921 5922 5922 5922 5923 5923 5923 5923 5924 5924 5925 5925 5926 5926 5927 5927 5927 5928 5928 5928 5928 5928 5928 5928 5928 5929 5929 5929 5929 5930 5930 5931 5931 5931 5932 5932 5932 5933 5933 5934 5935 5935 5936
5877 5879 5881 5882 5884 5886 5887 5888 5890 5891 5893 5894 5896 5896 5896 5896 5896 5897 5898 5899 5900 5900 5901 5901 5902 5902 5903 5903 5904 5905 5905 5906 5907 5908 5908 5909 5909 5910 5911 5912 5913 5914 5915 5916 5916 5917 5918 5919 5919 5920 5920 5921 5921 5922 5922 5922 5923 5923 5924 5924 5924 5925 5925 5926 5926 5927 5927 5928 5928 5929 5929 5929 5929 5929 5929 5930 5930 5930 5930 5930 5930 5931 5931 5931 5932 5932 5932 5933 5933 5933 5934 5934 5935 5936 5936 5937 5938
5876 5878 5879 5881 5882 5884 5885 5887 5888 5890 5891 5893 5894 5895 5896 5896 5896 5897 5898 5899 5900 5901 5901 5902 5902 5902 5903 5903 5904 5905 5906 5907 5908 5908 5908 5909 5910 5911 5912 5913 5914 5915 5915 5916 5917 5917 5918 5919 5920 5921 5921 5921 5922 5922 5922 5923 5923 5924 5925 5925 5926 5926 5926 5927 5927 5928 5928 5929 5929 5930 5930 5930 5930 5931 5931 5931 5931 5931 5931 5932 5932 5932 5932 5933 5933 5934 5934 5934 5934 5935 5936 5936 5937 5938 5938 5939 5940
5874 5876 5877 5879 5880 5882 5884 5885 5886 5887 5888 5891 5892 5894 5895 5895 5896 5896 5897 5899 5899 5900 5901 5902 5903 5903 5903 5903 5904 5905 5906 5907 5908 5909 5909 5909 5910 5911 5912 5913 5914 5915 5916 5917 5917 5918 5919 5920 5921 5921 5922 5922 5922 5923 5923 5923 5924 5925 5925 5926 5927 5927 5927 5928 5928 5929 5930 5930 5931 5931 5932 5932 5932 5932 5932 5933 5933 5933 5933 5933 5933 5934 5934 5934 5935 5936 5936 5936 5936 5937 5938 5938 5939 5939 5940 5941 5942
5872 5874 5875 5877 5878 5880 5882 5883 5884 5885 5887 5889 5890 5891 5893 5894 5895 5896 5897 5898 5899 5900 5901 5902 5903 5903 5903 5903 5904 5905 5906 5907 5908 5909 5909 5909 5910 5911 5912 5913 5914 5915 5916 5917 5918 5919 5919 5920 5921 5922 5922 5923 5923 5923 5924 5924 5925 5925 5926 5927 5928 5928 5928 5929 5929 5930 5931 5931 5932 5932 5933 5933 5933 5934 5934 5934 5934 5935 5935 5935 5935 5935 5936 5936 5936 5937 5937 5938 5938 5939 5939 5940 5940 5941 5941 5942 5943
5870 5872 5873 5875 5876 5878 5879 5880 5882 5884 5886 5887 5888 5889 5891 5893 5894 5895 5896 5897 5898 5899 5900 5901 5903 5904 5904 5904 5904 5905 5906 5907 5908 5909 5909 5909 5911 5912 5913 5914 5915 5916 5916 5917 5918 5919 5920 5920 5921 5922 5922 5923 5924 5924 5925 5925 5926 5926 5927 5927 5928 5929 5929 5930 5930 5931 5932 5933 5933 5934 5934 5934 5935 5935 5936 5936 5936 5937 5937 5937 5937 5937 5937 5938 5938 5938 5939 5939 5940 5941 5941 5942 5942 5943 5943 5944 5944
5867 5869 5871 5873 5874 5876 5877 5879 5881 5883 5884 5886 5887 5888 5890 5891 5892 5894 5896 5897 5897 5898 5899 5901 5902 5904 5904 5904 5904 5904 5905 5906 5907 5909 5909 5910 5911 5912 5913 5914 5915 5916 5917 5918 5919 5919 5920 5921 5922 5922 5923 5924 5924 5925 5926 5926 5927 5927 5927 5928 5929 5930 5930 5931 5932 5932 5933 5933 5934 5935 5935 5936 5936 5937 5937 5937 5938 5938 5939 5939 5939 5939 5939 5940 5940 5940 5940 5941 5942 5942 5943 5943 5944 5944 5945 5945 5946
5864 5866 5869 5871 5872 5874 5876 5878 5880 5882 5883 5885 5887 5888 5889 5890 5891 5892 5894 5896 5897 5897 5898 5900 5902 5903 5904 5905 5904 5904 5905 5906 5907 5908 5910 5911 5911 5912 5913 5914 5915 5916 5917 5918 5919 5920 5920 5921 5922 5923 5923 5924 5925 5926 5927 5927 5927 5928 5928 5928 5929 5930 5931 5931 5933 5933 5934 5934 5935 5936 5937 5937 5937 5938 5938 5939 5939 5940 5940 5940 5941 5941 5941 5941 5942 5942 5942 5943 5943 5944 5944 5945 5946 5946 5947 5947 5948
5861 5864 5866 5868 5870 5872 5874 5876 5878 5880 5882 5884 5886 5887 5888 5889 5890 5891 5892 5894 5896 5897 5897 5898 5900 5902 5903 5904 5904 5904 5905 5906 5907 5908 5910 5911 5912 5913 5914 5915 5916 5917 5918 5918 5919 5920 5920 5921 5922 5923 5924 5924 5925 5926 5927 5928 5928 5928 5929 5929 5930 5931 5931 5932 5933 5935 5935 5935 5936 5937 5938 5938 5939 5939 5940 5940 5941 5941 5941 5942 5942 5942 5943 5943 5943 5943 5944 5944 5945 5946 5946 5947 5947 5948 5949 5949 5949
5858 5861 5863 5866 5868 5869 5871 5874 5876 5878 5880 5882 5883 5885 5887 5888 5889 5890 5891 5893 5894 5895 5896 5896 5898 5900 5902 5904 5904 5905 5905 5905 5906 5908 5909 5911 5912 5913 5914 5915 5916 5917 5917 5918 5919 5920 5921 5921 5922 5923 5924 5925 5926 5927 5928 5929 5929 5930 5930 5930 5931 5932 5932 5933 5934 5936 5936 5937 5937 5938 5939 5939 5940 5940 5941 5941 5942 5942 5943 5943 5943 5944 5944 5945 5945 5945 5945 5946 5947 5947 5948 5948 5949 5950 5950 5950 5951
5856 5859 5861 5864 5866 5867 5869 5872 5874 5876 5878 5879 5881 5884 5886 5887 5889 5890 5891 5892 5893 5894 5895 5895 5897 5898 5900 5902 5904 5905 5905 5905 5906 5907 5908 5910 5911 5913 5914 5914 5915 5916 5918 5919 5920 5920 5921 5922 5923 5924 5924 5925 5926 5928 5928 5929 5930 5931 5931 5932 5932 5933 5933 5934 5935 5936 5938 5938 5938 5939 5940 5940 5941 5942 5942 5943 5943 5944 5944 5945 5945 5945 5946 5946 5946 5946 5947 5947 5948 5949 5949 5950 5951 5951 5952 5952 5952
5854 5857 5859 5862 5864 5865 5866 5869 5871 5874 5877 5878 5880 5883 5885 5887 5889 5890 5891 5892 5893 5893 5894 5894 5895 5897 5899 5901 5903 5904 5905 5905 5905 5906 5908 5909 5910 5912 5914 5914 5915 5916 5917 5919 5920 5921 5921 5922 5923 5924 5924 5925 5927 5928 5929 5930 5931 5932 5932 5933 5933 5934 5934 5934 5935 5937 5938 5939 5940 5940 5941 5941 5942 5943 5943 5944 5944 5945 5946 5946 5946 5946 5947 5947 5948 5948 5948 5949 5949 5950 5951 5951 5952 5953 5953 5954 5954
5853 5855 5858 5860 5862 5863 5864 5866 5869 5873 5876 5877 5879 5881 5883 5885 5887 5888 5889 5891 5893 5894 5895 5894 5894 5895 5898 5901 5903 5904 5905 5905 5905 5906 5907 5908 5909 5911 5913 5914 5915 5916 5917 5918 5920 5921 5921 5923 5923 5924 5925 5926 5927 5928 5929 5930 5931 5932 5933 5933 5933 5934 5934 5935 5936 5937 5939 5940 5940 5941 5941 5942 5943 5943 5944 5945 5945 5946 5947 5947 5947 5948 5948 5949 5949 5949 5950 5950 5951 5951 5952 5952 5953 5954 5954 5955 5955
5850 5854 5856 5858 5859 5861 5862 5863 5866 5870 5873 5875 5876 5878 5880 5882 5885 5886 5888 5890 5892 5894 5895 5895 5894 5895 5897 5899 5902 5903 5904 5905 5906 5906 5907 5908 5908 5910 5912 5914 5914 5915 5916 5917 5919 5920 5921 5923 5924 5925 5925 5926 5927 5928 5929 5930 5931 5932 5933 5933 5934 5934 5934 5935 5936 5938 5939 5941 5941 5942 5942 5943 5943 5944 5945 5945 5946 5947 5948 5948 5948 5949 5949 5950 5950 5951 5951 5951 5952 5952 5953 5953 5954 5955 5955 5956 5956
5849 5852 5854 5855 5856 5858 5859 5860 5863 5867 5870 5871 5873 5875 5878 5881 5884 5886 5887 5889 5891 5892 5894 5895 5894 5894 5896 5898 5900 5902 5903 5904 5905 5906 5907 5908 5908 5910 5912 5913 5914 5914 5916 5917 5919 5920 5921 5923 5924 5925 5926 5926 5927 5928 5929 5930 5931 5932 5933 5934 5935 5935 5935 5936 5937 5938 5940 5941 5942 5943 5944 5944 5944 5945 5945 5946 5947 5948 5949 5949 5949 5950 5951 5951 5952 5952 5952 5952 5953 5953 5954 5954 5955 5956 5956 5957 5957
5847 5850 5850 5851 5853 5855 5856 5856 5859 5864 5866 5869 5871 5874 5877 5881 5883 5885 5886 5888 5890 5892 5894 5894 5894 5894 5895 5897 5899 5901 5903 5904 5905 5905 5906 5907 5908 5909 5911 5912 5913 5913 5915 5917 5918 5919 5921 5922 5924 5925 5926 5927 5927 5928 5929 5930 5931 5932 5933 5934 5935 5936 5937 5937 5938 5939 5940 5941 5943 5944 5944 5945 5945 5945 5946 5947 5947 5948 5949 5950 5951 5951 5952 5952 5953 5953 5953 5954 5954 5954 5955 5955 5956 5956 5957 5957 5958
5845 5846 5847 5848 5849 5851 5852 5853 5856 5859 5862 5866 5869 5872 5876 5880 5881 5883 5885 5888 5890 5893 5894 5895 5894 5893 5894 5896 5898 5900 5902 5903 5904 5905 5906 5907 5907 5909 5910 5911 5912 5913 5915 5916 5918 5919 5920 5921 5923 5925 5926 5927 5928 5929 5930 5931 5931 5932 5933 5934 5935 5936 5937 5938 5939 5940 5941 5942 5943 5944 5945 5946 5946 5946 5947 5947 5948 5949 5950 5951 5952 5952 5953 5953 5954 5954 5954 5955 5955 5955 5956 5956 5957 5957 5957 5958 5959
5841 5842 5844 5846 5848 5849 5850 5850 5853 5855 5858 5863 5866 5869 5874 5878 5880 5882 5885 5888 5891 5894 5894 5894 5893 5892 5892 5894 5898 5900 5902 5903 5904 5905 5905 5906 5907 5908 5909 5911 5912 5913 5914 5915 5917 5919 5920 5921 5923 5924 5926 5927 5928 5929 5930 5931 5932 5933 5934 5935 5936 5937 5938 5939 5939 5940 5941 5942 5943 5944 5945 5946 5946 5947 5947 5948 5949 5949 5950 5951 5952 5953 5954 5954 5954 5955 5955 5955 5956 5956 5957 5957 5957 5958 5958 5959 5960
5838 5840 5843 5845 5847 5849 5849 5849 5851 5852 5855 5860 5864 5866 5871 5876 5878 5881 5884 5887 5890 5891 5892 5893 5893 5893 5893 5894 5897 5899 5901 5902 5903 5904 5905 5906 5907 5909 5910 5911 5912 5913 5914 5915 5917 5919 5920 5921 5922 5924 5925 5926 5927 5929 5930 5931 5932 5933 5934 5935 5936 5937 5938 5939 5939 5940 5941 5942 5943 5944 5945 5946 5946 5947 5948 5948 5949 5950 5951 5951 5952 5953 5954 5954 5955 5955 5955 5956 5956 5957 5957 5958 5958 5959 5959 5960 5960
5835 5837 5840 5842 5844 5846 5847 5848 5849 5849 5853 5860 5862 5863 5868 5872 5875 5878 5881 5883 5884 5886 5888 5890 5891 5892 5893 5894 5896 5898 5899 5901 5902 5903 5904 5906 5907 5909 5910 5911 5912 5913 5914 5915 5916 5918 5920 5921 5922 5923 5925 5926 5927 5928 5930 5931 5932 5933 5934 5936 5937 5938 5938 5939 5940 5940 5941 5942 5943 5944 5945 5946 5946 5947 5948 5948 5949 5950 5951 5951 5952 5953 5954 5954 5955 5955 5955 5956 5957 5958 5958 5958 5959 5959 5960 5960 5961
5831 5834 5836 5839 5841 5843 5845 5845 5846 5848 5853 5859 5860 5861 5866 5868 5871 5875 5878 5879 5880 5881 5882 5883 5886 5888 5890 5891 5893 5895 5897 5900 5901 5902 5904 5905 5907 5908 5909 5910 5911 5912 5913 5914 5915 5917 5919 5920 5922 5923 5924 5926 5927 5928 5929 5930 5931 5933 5934 5935 5937 5938 5939 5939 5940 5941 5942 5942 5943 5944 5945 5946 5946 5947 5948 5949 5949 5950 5951 5951 5952 5953 5953 5954 5954 5955 5956 5957 5957 5958 5959 5959 5959 5960 5961 5961 5961
5828 5830 5833 5836 5838 5840 5842 5843 5844 5846 5852 5856 5856 5859 5863 5865 5868 5873 5875 5877 5878 5880 5880 5880 5881 5883 5885 5887 5889 5891 5894 5897 5900 5902 5903 5905 5906 5907 5908 5909 5910 5911 5913 5914 5915 5916 5917 5919 5921 5922 5923 5925 5926 5927 5929 5930 5931 5932 5933 5935 5936 5937 5939 5939 5940 5940 5941 5942 5943 5944 5945 5946 5947 5947 5948 5948 5949 5949 5950 5951 5951 5952 5953 5953 5954 5955 5956 5957 5957 5958 5959 5959 5960 5960 5961 5961 5962
5824 5827 5830 5833 5835 5838 5840 5842 5843 5846 5850 5853 5854 5856 5860 5861 5865 5870 5873 5875 5877 5879 5880 5881 5882 5882 5882 5883 5885 5887 5890 5894 5897 5900 5902 5904 5905 5906 5907 5908 5909 5910 5912 5914 5915 5916 5917 5918 5920 5921 5922 5924 5925 5926 5928 5929 5930 5931 5932 5934 5935 5937 5938 5939 5939 5940 5941 5942 5943 5944 5945 5946 5946 5947 5948 5948 5948 5949 5950 5950 5950 5951 5952 5953 5954 5955 5956 5957 5957 5958 5958 5959 5959 5960 5961 5962 5962
5820 5824 5827 5830 5833 5837 5839 5840 5842 5844 5847 5850 5852 5854 5856 5858 5862 5866 5869 5872 5875 5877 5878 5880 5882 5883 5883 5883 5884 5886 5889 5891 5894 5897 5900 5902 5904 5905 5906 5907 5908 5910 5911 5913 5914 5915 5916 5917 5918 5920 5921 5922 5924 5925 5927 5928 5929 5931 5932 5933 5934 5936 5937 5939 5939 5940 5941 5942 5943 5944 5945 5946 5947 5947 5948 5948 5948 5948 5949 5949 5950 5951 5951 5952 5954 5954 5955 5956 5957 5957 5958 5958 5959 5960 5961 5962 5962
5816 5820 5823 5826 5831 5834 5836 5838 5840 5841 5844 5846 5849 5850 5852 5855 5859 5862 5865 5868 5871 5874 5876 5877 5880 5882 5884 5885 5885 5886 5888 5890 5892 5895 5897 5899 5902 5904 5906 5907 5908 5910 5911 5912 5913 5914 5914 5915 5917 5918 5920 5922 5923 5924 5925 5927 5929 5930 5931 5932 5933 5935 5936 5938 5939 5940 5941 5941 5942 5943 5945 5946 5947 5947 5948 5948 5948 5948 5948 5949 5949 5950 5951 5952 5953 5954 5954 5955 5956 5957 5958 5958 5959 5960 5961 5962 5963
5812 5815 5819 5823 5827 5830 5832 5834 5836 5838 5840 5842 5844 5846 5848 5851 5854 5857 5861 5864 5868 5871 5873 5875 5877 5879 5882 5884 5886 5886 5887 5888 5889 5891 5894 5897 5899 5902 5905 5907 5908 5909 5910 5911 5912 5913 5914 5915 5915 5917 5919 5920 5922 5923 5924 5926 5927 5929 5930 5931 5932 5933 5935 5936 5938 5939 5940 5941 5942 5943 5944 5945 5946 5947 5948 5948 5948 5948 5948 5948 5948 5949 5950 5951 5952 5953 5953 5954 5955 5956 5957 5958 5959 5959 5960 5961 5962
5808 5811 5815 5820 5823 5825 5828 5830 5832 5834 5836 5837 5840 5843 5844 5846 5850 5855 5858 5861 5864 5867 5869 5872 5874 5876 5879 5882 5885 5886 5887 5888 5888 5889 5891 5894 5897 5900 5903 5905 5907 5908 5909 5910 5911 5912 5913 5914 5915 5916 5917 5918 5919 5921 5923 5924 5926 5927 5928 5930 5931 5932 5933 5935 5936 5938 5940 5941 5942 5943 5943 5944 5945 5946 5947 5947 5947 5948 5948 5948 5948 5949 5949 5950 5951 5951 5952 5954 5955 5956 5956 5957 5958 5959 5960 5961 5962
5804 5808 5811 5815 5818 5820 5824 5826 5828 5831 5832 5834 5837 5840 5840 5841 5846 5851 5854 5856 5859 5863 5866 5869 5871 5873 5876 5879 5882 5885 5886 5887 5887 5888 5889 5891 5894 5898 5901 5902 5904 5906 5907 5909 5910 5912 5913 5913 5914 5915 5915 5917 5918 5920 5922 5923 5925 5926 5927 5928 5929 5931 5932 5933 5935 5937 5938 5939 5941 5942 5942 5943 5944 5945 5946 5947 5947 5947 5948 5948 5949 5949 5949 5949 5950 5950 5951 5953 5954 5955 5955 5956 5957 5958 5959 5960 5961
5801 5804 5807 5810 5813 5816 5820 5822 5824 5827 5829 5831 5833 5835 5836 5837 5841 5846 5850 5853 5856 5859 5862 5865 5868 5870 5873 5876 5879 5882 5884 5885 5886 5886 5887 5888 5890 5894 5897 5899 5901 5903 5905 5907 5909 5911 5912 5913 5914 5914 5915 5916 5917 5919 5920 5922 5923 5925 5926 5927 5928 5929 5930 5932 5934 5936 5937 5938 5939 5940 5941 5942 5943 5944 5945 5946 5947 5947 5948 5948 5949 5949 5949 5949 5949 5950 5951 5952 5953 5954 5954 5955 5956 5957 5958 5959 5960
5798 5800 5803 5806 5809 5812 5816 5818 5821 5824 5826 5827 5829 5831 5832 5834 5836 5841 5846 5849 5852 5855 5858 5861 5864 5867 5870 5873 5876 5879 5882 5884 5885 5885 5885 5885 5886 5888 5891 5894 5896 5899 5902 5905 5908 5909 5911 5912 5913 5913 5914 5915 5916 5917 5918 5919 5921 5923 5924 5926 5926 5927 5929 5930 5932 5934 5935 5937 5938 5939 5940 5942 5942 5943 5944 5945 5946 5947 5948 5948 5948 5948 5949 5949 5949 5950 5950 5951 5952 5953 5953 5954 5955 5956 5957 5958 5959